Zurück zum Katalog

MOBIUS-1

AktivWissenschaftSSO
NORAD 64556·PAYLOAD·🇨🇦 Canada
Dieser Satellitenname wurde noch nicht durch offizielle Quellen bestätigt.

Gestartet Jun 23, 2025 von Vandenberg Space Force Base

Loading…

Nächste Überflüge (nächste 24 Stunden)

TLE

AktuellSource: Space-Track

Epoche: Sep 14, 2026, 03:22 UTC

1 64556U 25135AE  26257.14050187  .00006920  00000-0  26326-3 0  9999
2 64556  97.4827  13.8428 0002936 100.9087 259.2482 15.27083323 68512

Verfolge MOBIUS-1 in Echtzeit mit AllMySat

Download on the App Store